Theta_e
326 323 324 324 325 323 322 322 323 323 324 325 326 326 329 330 330 329 329 328 327 326 326 327 328 329 331 330 330 329 328 329 329 327 327 327 325 326 329 328 327 325 325 323 325 323 321 316 316 320 323 324 326 327 327 325 324 323 323 325 326 329 330
325 324 324 323 322 323 322 322 323 322 323 325 325 327 327 327 327 326 327 326 326 326 325 325 327 328 330 331 330 330 329 327 328 327 328 327 328 327 325 326 325 323 322 323 325 326 323 317 315 317 316 317 316 316 317 317 318 319 319 319 320 322 326
325 324 324 322 321 323 321 322 323 323 323 324 325 325 325 325 326 327 326 326 327 325 324 325 326 326 326 325 325 326 327 326 327 328 327 326 327 326 326 325 322 320 319 319 320 321 321 321 314 311 315 311 309 311 315 314 315 315 316 316 316 317 317
325 324 322 321 320 322 321 321 322 321 323 324 324 325 325 325 327 327 327 326 326 326 324 323 324 322 323 324 324 324 325 326 325 325 323 323 323 322 321 320 318 318 318 316 318 320 318 316 313 313 312 308 307 307 311 313 313 312 312 314 313 314 315
325 324 324 322 321 321 321 320 320 321 321 322 324 324 325 326 327 326 327 326 325 326 324 324 324 322 323 323 323 323 322 322 323 322 323 322 322 320 321 320 319 319 318 315 315 320 320 317 316 313 310 309 308 308 310 312 311 310 310 310 311 312 313
326 326 325 323 323 321 320 320 320 319 320 320 322 323 324 326 327 325 325 324 324 325 324 323 323 323 324 322 322 322 322 322 322 323 320 322 322 319 317 318 317 316 315 317 317 317 320 320 317 312 312 313 309 309 311 311 308 308 309 308 309 310 311
326 326 325 323 323 322 322 321 321 320 320 322 322 323 323 324 326 327 326 325 324 324 323 323 323 323 324 320 321 321 321 321 322 322 320 320 319 319 319 315 315 314 315 317 317 316 316 317 315 313 312 313 313 309 310 311 312 307 306 306 308 309 310
326 325 325 325 323 322 322 322 322 322 321 322 322 323 322 325 325 326 325 324 324 324 323 323 322 323 324 320 320 322 321 321 321 320 319 319 317 317 318 315 315 314 314 313 314 314 313 317 317 316 313 309 309 310 307 307 306 306 306 305 306 307 309
323 324 322 321 323 323 323 322 321 323 323 322 322 322 323 324 325 325 324 324 324 324 323 322 322 321 323 321 320 321 319 319 320 319 317 318 318 317 316 317 314 313 315 314 314 313 312 315 316 317 317 313 309 305 307 306 305 303 306 304 304 306 306
322 322 321 321 320 321 323 323 322 322 323 323 322 324 323 323 325 324 323 323 324 324 323 321 321 321 322 321 320 319 318 319 318 316 317 315 316 317 316 317 314 313 314 316 314 314 315 315 314 315 315 314 312 307 305 304 305 304 303 303 302 304 306
323 323 323 321 321 320 321 322 323 321 321 323 323 323 324 322 323 322 323 323 324 323 322 321 320 320 321 319 320 318 318 319 317 317 317 315 316 316 315 315 314 312 316 314 314 316 315 315 313 314 313 313 314 309 307 303 303 307 304 304 304 303 305
323 322 322 322 322 321 320 321 322 323 324 323 322 323 323 322 323 322 322 322 323 322 322 322 321 321 320 319 319 318 319 319 316 315 317 316 316 316 315 314 314 312 315 315 314 314 315 314 312 310 311 313 315 313 310 307 303 304 309 304 304 305 305
321 321 321 321 321 321 321 321 322 322 323 323 323 323 323 322 321 321 320 320 321 321 321 321 322 321 322 321 320 318 318 317 315 315 314 316 313 315 315 313 313 312 313 313 313 313 311 313 314 310 311 310 310 313 312 308 305 303 307 304 305 305 306
321 321 321 322 322 322 322 322 322 324 322 322 322 321 321 321 321 320 319 319 319 320 320 321 321 322 320 320 321 321 318 317 315 315 315 315 314 314 313 312 312 313 315 313 312 312 310 310 311 311 311 309 308 311 310 309 306 304 306 307 307 305 306
322 322 322 322 321 320 321 321 322 321 322 322 322 321 320 323 322 321 320 320 320 319 319 320 320 320 319 319 320 321 322 319 317 316 317 314 314 314 315 313 311 313 313 312 312 308 309 309 308 307 308 309 307 308 311 310 309 308 305 306 306 307 306
322 323 323 322 322 321 323 323 321 322 322 322 322 322 322 323 322 322 322 322 321 321 321 320 321 320 320 319 318 319 320 320 319 318 317 316 314 313 313 314 313 315 314 313 313 312 312 309 308 306 307 308 307 307 308 310 311 308 307 305 307 306 306
322 323 323 324 324 324 323 324 323 322 322 323 322 324 324 323 322 323 322 322 322 322 322 322 322 321 320 320 319 318 318 319 318 318 317 316 315 314 314 314 314 315 314 313 312 312 311 311 310 308 308 308 308 307 309 310 311 311 310 307 306 305 306
323 324 324 325 325 324 325 325 325 323 324 323 324 325 324 323 322 321 323 322 322 322 322 322 322 321 322 322 321 320 319 319 319 318 318 317 318 317 315 314 314 314 314 313 313 312 311 310 308 309 308 307 307 307 309 309 309 310 310 308 306 306 307
322 323 323 324 325 325 325 325 324 325 324 324 325 325 325 324 323 323 323 323 323 323 323 322 322 322 322 322 322 321 321 320 319 318 318 318 317 317 317 315 316 315 314 314 313 313 312 311 308 309 308 307 306 308 309 308 309 309 308 307 308 307 306
322 322 323 324 324 324 324 325 323 323 324 324 324 324 324 324 325 324 324 325 324 323 323 323 324 324 323 322 322 321 321 321 320 319 318 317 317 317 316 316 317 316 316 314 315 314 313 311 310 309 309 309 307 308 308 308 307 308 308 308 307 306 306
321 322 322 323 323 324 324 324 324 325 324 324 324 324 323 324 325 324 325 324 324 323 323 323 323 323 323 324 323 322 321 320 320 320 319 318 317 316 317 317 318 317 316 316 315 315 314 311 310 309 309 309 309 309 308 307 308 307 307 307 305 305 304
322 322 321 322 323 324 325 325 324 324 324 324 325 324 324 323 323 323 323 323 323 323 323 324 324 323 324 322 322 321 320 320 320 320 319 319 319 318 317 317 317 318 319 316 310 311 310 309 310 308 309 309 308 308 308 307 307 306 306 307 306 305 304
321 321 321 321 322 322 322 324 324 323 322 323 323 323 323 322 322 322 322 322 322 322 322 323 317 308 308 320 322 322 322 322 321 320 320 319 320 319 318 318 318 315 312 309 306 301 300 300 304 309 309 309 308 307 307 306 305 306 307 306 304 302 301
321 321 322 322 322 321 320 322 322 322 321 321 322 321 321 321 321 321 321 321 321 321 321 319 298 295 295 297 314 323 322 322 322 321 320 319 319 320 320 318 319 315 311 308 309 298 297 296 297 298 299 300 303 308 306 305 305 306 305 304 301 300 299
320 320 318 318 318 319 320 319 319 320 320 320 320 320 320 321 320 320 320 321 321 320 320 299 292 293 293 293 297 316 320 321 321 321 321 320 319 319 319 319 319 318 317 315 314 307 300 295 293 293 292 292 292 291 294 305 305 304 304 301 299 299 299
320 319 318 318 318 318 318 316 317 318 319 319 317 317 317 316 317 318 320 320 318 315 315 293 292 293 293 292 292 303 317 318 319 320 320 320 319 319 319 318 318 317 315 310 309 308 304 300 294 293 294 294 293 292 291 290 294 306 304 301 300 299 299
316 315 314 316 317 317 318 318 318 318 317 317 317 316 315 316 314 315 314 315 315 315 315 295 291 292 293 292 291 300 316 317 319 317 314 314 315 316 316 316 316 315 315 312 311 308 305 304 304 304 304 303 301 298 294 292 292 293 299 302 300 298 300
311 311 312 313 315 315 315 315 314 314 315 316 316 315 315 315 311 311 311 313 316 315 308 291 291 292 292 293 292 302 318 315 314 312 311 311 311 312 313 314 314 313 312 311 309 307 307 307 306 305 304 303 303 302 302 302 301 300 299 300 300 299 299
310 310 311 312 312 312 313 313 313 313 313 311 310 310 308 310 311 310 311 315 317 315 307 290 291 292 292 292 295 314 315 313 311 310 309 309 309 310 311 311 311 310 310 308 299 296 301 307 306 304 302 301 300 299 297 294 292 294 299 299 300 299 299
307 308 310 311 311 312 312 312 312 312 313 313 313 313 312 311 311 313 313 314 317 315 309 295 291 292 292 293 304 314 312 310 309 308 307 307 307 307 307 308 309 308 307 306 295 293 294 300 305 303 302 300 299 298 297 296 292 290 290 290 289 289 288
309 309 311 311 312 311 311 312 311 310 314 314 312 310 309 309 307 307 309 309 307 311 309 297 291 292 292 294 304 313 311 309 307 306 305 306 307 305 302 300 304 307 305 302 290 291 293 301 304 303 301 299 297 297 295 295 295 294 289 289 289 289 289
307 308 309 310 312 312 313 313 310 310 312 312 310 308 307 309 307 306 305 305 298 306 308 301 292 291 292 294 306 312 310 309 307 306 305 303 304 304 302 298 295 298 300 294 288 290 291 299 303 302 300 298 296 296 296 297 297 297 298 298 298 297 295
308 308 308 309 309 311 310 309 310 310 309 309 308 307 306 307 307 304 302 304 304 305 307 306 299 291 293 293 296 310 311 310 307 305 305 303 302 302 302 300 295 289 288 288 289 288 290 292 298 299 299 299 298 295 297 297 296 297 297 296 296 296 296
312 312 312 310 309 308 307 307 305 306 307 306 307 306 306 305 304 303 302 302 304 304 304 306 301 291 292 292 293 300 310 309 307 306 304 302 303 302 301 299 298 290 288 288 289 288 289 289 292 299 298 297 296 295 294 297 295 291 296 295 295 295 295
310 312 310 310 309 308 307 309 309 310 308 307 307 306 304 303 303 302 301 301 302 303 300 298 304 293 291 291 292 295 306 307 306 306 304 303 302 302 300 298 297 291 288 288 288 289 289 290 290 296 293 288 287 288 295 295 296 295 295 295 294 293 294
309 310 310 311 310 308 306 306 306 307 308 307 306 305 304 303 303 302 301 301 301 301 301 300 293 299 291 291 291 293 295 300 292 306 305 303 302 300 299 298 294 289 288 288 288 288 289 289 291 292 287 288 288 288 291 295 294 294 293 293 293 293 292
308 309 310 310 310 310 306 307 305 306 306 306 305 304 303 303 303 303 302 300 300 300 300 301 294 292 295 289 290 290 291 291 293 304 305 304 301 299 299 298 294 288 288 288 288 288 288 289 290 287 287 287 288 290 293 293 293 293 292 291 291 291 292
Wind_Speed
6 6 5 4 3 4 4 3 3 2 3 3 3 3 2 3 3 4 4 3 3 3 2 3 3 2 3 3 3 3 3 3 3 3 2 2 1 2 2 1 2 3 3 4 2 1 1 5 5 6 8 7 9 9 8 8 7 7 7 6 6 5 4
6 6 5 5 5 4 5 3 3 3 3 3 3 3 3 4 4 4 4 4 3 3 2 3 3 3 4 3 3 2 3 3 3 2 2 3 2 2 1 2 2 3 3 2 2 2 2 6 6 5 6 7 9 8 7 7 7 7 8 8 8 8 7
6 6 5 6 4 4 5 4 3 3 2 3 3 4 4 4 4 4 4 4 4 3 3 4 4 4 4 4 4 3 3 3 2 3 4 3 3 2 2 2 2 2 3 3 3 5 5 4 6 4 4 7 8 6 6 7 8 9 8 8 8 9 8
8 8 7 6 5 4 5 4 3 3 2 2 2 3 4 4 4 4 4 4 4 3 3 4 4 4 4 4 4 5 5 4 4 5 4 4 3 3 3 3 4 4 4 3 3 2 4 6 8 7 8 8 9 9 7 6 8 9 9 8 9 8 8
10 8 8 8 6 7 5 5 3 3 2 2 2 3 3 3 4 4 4 4 4 4 4 3 3 4 3 4 4 4 5 5 5 5 5 5 5 5 5 4 5 4 4 4 3 2 4 6 7 9 8 8 8 7 6 8 9 10 10 10 9 8 8
8 8 8 7 6 6 5 5 4 4 3 3 2 3 2 2 3 4 4 4 3 3 3 4 3 3 3 4 5 5 5 5 4 5 5 5 5 6 5 4 4 5 5 3 2 3 3 4 7 8 6 5 7 7 5 5 7 9 9 9 9 9 8
6 6 6 7 6 5 5 6 5 5 4 4 4 3 2 2 2 3 3 4 3 4 4 4 4 3 3 4 5 6 6 4 5 6 6 6 5 5 4 5 5 6 5 4 4 3 3 4 6 7 7 6 6 7 5 5 4 5 8 8 8 8 8
5 5 4 5 6 6 4 5 4 3 4 3 3 3 2 2 3 3 3 4 4 4 4 4 3 3 4 4 5 5 4 4 5 5 5 6 5 6 6 5 5 5 4 5 5 5 3 2 3 6 8 9 6 5 6 6 7 8 5 7 8 8 8
4 4 4 4 4 5 6 5 5 4 3 3 3 3 2 3 4 4 4 4 4 4 4 4 4 4 4 4 4 4 5 2 5 6 5 6 6 6 5 5 5 5 4 4 5 5 5 3 2 2 4 6 8 7 5 5 5 7 7 4 7 9 7
7 7 6 6 5 4 5 5 5 4 4 3 4 3 4 3 3 4 4 4 4 3 4 4 4 4 4 5 5 5 5 3 5 5 4 5 5 4 5 5 5 4 4 3 4 4 4 4 4 2 0 2 3 6 6 5 4 3 6 6 4 6 7
6 6 6 7 6 6 4 4 4 4 5 4 3 3 4 4 4 4 4 4 4 4 4 4 4 5 5 5 5 5 4 4 5 4 4 5 4 4 4 4 4 5 3 4 4 3 4 4 4 4 3 2 0 3 5 6 4 3 3 4 5 4 6
6 5 5 6 6 7 7 6 6 5 4 4 4 4 4 4 4 3 3 3 3 3 3 4 4 4 4 5 4 4 4 4 5 5 3 3 3 3 5 5 5 5 4 5 4 4 3 3 4 5 5 4 3 3 5 6 6 3 2 3 3 4 4
7 7 6 7 6 7 7 6 6 5 5 4 3 2 3 4 4 4 3 3 3 3 3 3 3 4 3 4 3 3 3 3 5 5 5 3 3 3 5 5 5 5 4 5 5 4 4 3 3 4 5 5 5 4 3 4 6 5 2 3 2 3 2
7 7 7 7 7 6 6 5 5 5 5 4 4 4 3 4 4 4 4 3 3 3 3 3 2 2 2 3 2 3 3 2 2 3 4 4 3 3 4 4 4 3 3 4 4 4 4 4 4 3 3 4 5 3 4 5 6 6 3 1 1 2 3
6 7 8 7 7 7 6 6 5 5 5 5 5 5 5 4 5 5 5 5 4 3 2 2 2 2 2 2 2 1 1 2 2 2 2 3 3 2 3 4 4 4 2 4 4 5 5 4 4 5 4 4 4 4 2 4 5 4 5 3 2 1 2
7 8 8 7 7 7 6 6 6 6 6 5 5 6 5 5 6 6 6 5 5 5 4 3 2 2 2 2 2 2 2 1 1 2 3 2 3 2 3 4 4 4 2 4 3 3 3 3 3 5 5 3 5 4 3 2 4 5 5 3 1 2 2
8 8 8 7 8 7 7 6 6 6 6 6 6 5 6 5 4 4 4 4 4 4 5 5 4 3 2 1 1 2 2 3 2 2 3 3 2 3 3 3 3 4 4 5 4 4 3 3 3 4 5 4 4 4 3 3 3 4 4 4 2 1 2
7 7 7 6 7 7 7 6 6 6 6 6 5 5 4 3 3 4 4 4 4 4 4 3 4 4 3 3 2 2 3 3 3 4 4 4 3 3 5 6 5 5 5 5 5 5 4 4 3 4 4 4 4 4 3 2 3 3 3 4 3 1 0
6 6 6 6 6 6 6 6 6 5 5 5 5 4 4 4 4 4 3 3 3 1 1 2 3 3 3 4 3 3 3 3 4 5 5 4 5 6 6 7 6 6 6 6 5 5 5 6 4 4 4 4 4 4 3 3 3 3 3 3 2 2 1
5 5 5 5 4 5 6 6 6 5 4 4 4 4 4 3 3 2 1 0 1 0 1 2 2 2 2 3 3 2 2 2 4 3 4 6 6 6 5 6 7 7 7 7 5 5 5 5 5 6 5 4 4 4 4 3 3 3 2 2 2 2 1
5 6 5 5 5 5 5 5 5 5 4 4 4 4 4 3 2 1 1 1 1 1 1 1 1 1 2 2 2 2 3 3 3 4 5 5 6 6 7 8 8 8 5 7 7 5 6 6 5 5 5 5 5 5 4 4 3 2 2 2 2 2 1
5 6 7 7 6 6 5 5 5 5 4 4 3 3 3 2 2 2 1 1 1 1 2 2 1 1 1 1 1 2 2 3 3 3 3 4 5 6 6 7 9 9 12 12 12 9 9 7 6 6 5 5 5 5 4 3 3 2 2 1 1 1 2
5 5 6 6 6 6 5 5 5 5 5 4 4 3 2 2 1 2 2 2 1 1 1 1 1 2 4 2 2 2 2 2 2 2 3 4 4 5 6 7 7 9 11 11 10 9 8 8 8 5 7 7 6 5 4 3 2 1 1 0 2 3 3
3 4 4 5 4 4 4 4 4 4 4 3 2 2 1 2 2 1 2 2 2 1 1 2 8 4 1 3 3 2 2 3 2 2 3 3 5 5 4 5 5 6 8 7 7 8 7 6 3 2 6 5 2 3 4 3 2 1 1 1 1 1 1
3 1 3 2 1 3 3 3 4 4 4 4 3 2 3 2 2 2 2 2 2 2 1 6 5 5 3 4 3 2 1 1 1 2 3 4 4 5 5 3 2 1 2 4 4 6 7 7 7 9 10 9 8 9 9 4 2 2 2 1 1 0 2
4 5 5 6 5 4 3 2 3 4 5 5 4 4 4 4 3 2 3 3 4 3 3 5 5 6 7 6 4 1 1 1 0 1 2 4 4 4 3 3 2 0 1 7 6 6 7 8 10 12 13 12 11 10 10 11 10 4 2 2 1 1 1
3 3 3 5 5 5 5 4 2 2 3 3 3 3 3 4 4 4 4 4 4 3 3 5 5 5 5 5 4 3 3 3 3 3 3 3 2 3 3 3 2 1 3 5 5 8 9 10 10 9 7 6 6 8 10 10 9 9 6 2 1 0 1
4 3 3 3 4 4 4 4 4 3 3 3 3 3 3 4 4 4 5 4 4 3 3 3 4 5 6 5 4 2 4 3 3 4 4 4 4 3 3 2 2 2 3 3 4 7 9 9 8 7 7 6 6 5 5 4 4 3 3 2 2 1 1
4 3 3 3 4 4 4 4 4 4 4 3 3 3 4 4 4 4 3 2 3 4 4 8 6 5 7 7 5 3 4 4 4 4 4 4 4 3 3 2 2 3 4 5 7 7 7 8 8 8 7 6 6 5 5 5 6 6 4 2 2 1 1
3 2 2 3 3 3 3 4 3 2 4 4 4 3 3 2 2 2 2 2 3 4 4 6 5 5 7 5 4 4 4 4 5 5 4 4 4 5 4 4 3 4 6 6 6 7 6 7 6 7 6 6 4 4 4 4 4 4 4 4 4 3 3
3 2 3 4 3 2 2 2 3 0 3 4 4 3 2 3 3 3 4 4 3 2 3 5 4 6 5 2 2 4 4 4 5 5 5 5 5 6 8 11 6 6 7 6 6 5 4 4 5 5 6 6 5 4 4 3 3 3 3 3 4 3 3
6 4 3 3 2 2 1 2 2 2 2 3 3 2 2 3 3 3 3 3 4 3 2 4 5 5 6 4 2 3 4 4 5 5 5 5 4 5 6 8 12 9 8 7 8 7 6 3 4 3 4 5 4 4 3 2 1 1 1 1 2 1 5
6 7 6 5 5 4 3 3 3 3 2 2 3 2 2 2 3 2 2 2 2 2 2 2 3 3 5 5 1 2 3 4 5 5 4 5 5 5 6 6 7 9 9 10 10 10 9 8 5 3 1 2 3 4 3 2 3 2 1 1 3 3 4
4 5 5 5 4 3 3 3 3 3 3 2 2 2 2 2 2 2 2 1 1 1 2 1 2 2 5 5 4 2 2 2 4 4 4 4 4 5 4 4 5 6 9 10 11 11 11 10 8 5 4 4 5 4 1 1 3 2 2 3 4 4 4
3 2 3 4 5 4 2 2 3 4 3 4 4 3 3 2 2 2 1 1 0 1 2 3 1 3 4 6 4 1 2 3 4 5 4 4 4 4 4 5 5 6 9 11 11 11 11 9 8 7 7 7 5 2 2 1 2 2 3 4 4 5 5
5 3 4 6 7 6 4 4 3 3 4 5 4 4 4 4 4 3 3 2 1 1 0 1 3 2 5 7 7 4 3 5 5 3 5 5 4 5 5 6 6 7 9 10 10 10 9 10 10 8 8 7 6 2 2 2 3 3 4 4 5 5 5
5 4 5 6 6 6 6 5 5 5 5 6 5 5 4 4 4 5 5 4 3 3 2 1 3 2 4 5 6 7 8 7 5 2 2 3 4 5 6 6 7 9 10 11 11 11 11 10 8 8 7 6 4 2 3 3 3 4 4 4 5 5 5
Wind_Direction
138 131 130 117 109 124 113 98 103 79 56 52 71 74 76 79 79 81 77 77 73 65 67 73 76 93 108 105 87 88 87 79 75 85 86 146 92 107 79 42 52 78 96 103 144 333 24 137 106 86 63 47 59 57 51 53 53 57 56 45 44 49 48
117 122 127 130 128 127 111 105 96 95 85 61 58 71 65 73 78 86 85 79 73 68 71 85 83 78 77 87 100 104 100 101 100 86 83 75 84 76 143 101 92 84 80 85 116 122 137 141 125 91 87 72 67 56 59 61 64 64 63 58 55 57 59
127 124 132 131 130 130 110 102 94 93 93 91 72 66 77 75 72 74 78 76 73 67 59 72 86 82 72 72 61 68 80 97 90 94 90 100 88 90 48 79 104 122 126 107 92 106 87 63 118 106 88 80 67 44 47 59 66 67 63 58 57 55 54
136 135 135 136 134 132 118 106 103 94 81 89 89 80 74 84 82 74 73 75 71 68 69 73 65 75 77 79 81 79 67 66 75 85 85 78 94 91 77 67 65 53 46 60 60 102 131 132 125 118 110 115 112 93 58 57 67 67 65 59 55 50 49
146 149 149 149 149 134 125 118 111 112 104 94 93 100 88 97 102 90 83 78 71 68 69 67 71 82 87 88 83 78 78 74 81 85 82 82 79 82 70 67 69 67 65 56 34 20 141 140 134 129 130 123 104 97 104 83 70 66 59 55 53 53 49
149 150 149 144 146 136 132 129 133 125 129 125 117 112 101 100 101 103 92 84 78 68 66 70 71 74 85 87 87 86 79 76 68 75 79 65 62 77 81 68 70 74 75 61 42 52 57 123 134 131 125 131 121 116 105 93 82 65 54 53 50 47 48
148 153 151 147 144 136 138 137 137 136 145 142 142 131 123 107 84 86 92 81 75 80 71 66 62 56 63 84 86 83 82 81 83 82 86 84 77 72 74 80 73 77 73 64 70 79 110 153 148 137 132 114 119 117 104 93 66 82 62 51 50 51 49
146 150 145 140 142 138 136 134 130 130 144 146 150 131 155 138 115 116 113 112 105 98 94 91 82 75 66 77 78 77 78 80 84 86 86 90 89 85 78 84 85 76 67 66 64 58 69 98 149 145 143 132 116 106 110 95 83 55 65 68 43 52 51
137 135 133 137 136 137 140 142 140 143 141 140 138 148 161 168 150 140 138 129 125 116 110 109 107 101 89 92 91 83 83 63 91 90 94 93 90 89 90 90 89 79 66 65 64 59 57 59 94 144 162 148 138 131 121 102 84 70 32 59 71 45 45
155 156 154 150 138 131 135 141 145 144 139 157 153 157 148 154 150 149 143 141 138 131 126 122 120 116 115 107 104 102 94 80 87 86 86 94 94 93 88 81 87 89 79 70 71 66 59 58 75 90 253 159 144 138 139 110 77 73 54 25 47 51 37
154 153 149 146 145 142 142 139 137 148 169 165 162 155 149 145 145 148 145 149 146 145 137 136 128 124 122 112 110 107 106 107 103 98 93 102 102 102 101 99 98 100 91 88 76 53 54 49 54 64 82 98 219 136 131 126 104 55 75 60 36 50 40
149 146 149 149 150 149 153 157 162 164 152 161 170 164 158 151 143 139 133 135 143 143 142 132 132 124 116 113 116 118 131 134 121 118 110 103 102 116 120 115 115 114 117 107 99 83 64 58 65 68 63 56 59 103 126 129 125 81 4 60 58 45 47
150 149 159 162 159 157 157 164 157 163 170 160 152 151 150 140 140 134 125 119 121 130 137 127 130 132 130 117 127 120 118 141 131 130 132 132 131 131 130 131 131 130 134 128 116 105 95 74 59 73 73 77 75 63 85 88 95 110 73 50 65 70 55
149 149 162 168 156 152 150 159 165 161 149 158 145 155 161 154 146 142 137 128 117 113 116 118 111 123 128 126 124 118 138 151 141 128 138 141 146 153 140 133 134 130 147 132 125 126 118 112 100 86 73 82 85 72 83 101 107 119 126 87 53 56 40
153 154 164 167 161 158 160 164 159 156 167 152 161 165 172 163 159 155 148 142 136 126 119 110 113 111 126 128 117 87 170 171 177 141 165 161 155 162 163 159 150 152 179 139 146 141 135 138 127 114 98 91 93 86 24 88 96 105 117 157 133 104 80
159 163 167 168 166 161 156 156 161 162 162 158 171 180 179 176 172 170 164 161 154 147 143 132 135 143 139 153 157 163 165 209 227 199 199 204 194 172 192 188 175 170 171 160 153 131 140 137 118 106 104 95 94 88 82 89 112 105 117 115 169 117 69
170 172 172 172 164 160 160 160 166 167 164 166 172 183 188 188 177 172 157 155 159 159 158 161 154 147 132 142 182 179 173 165 182 226 245 245 211 193 226 228 209 191 185 178 168 161 162 143 136 123 121 116 108 96 83 78 77 104 118 124 137 67 83
181 180 176 168 160 155 158 159 164 169 167 179 183 173 171 164 176 188 179 168 172 178 183 169 154 152 156 171 188 195 190 191 195 207 216 215 209 232 239 240 230 207 201 199 176 181 165 164 153 146 138 131 127 121 111 93 94 97 106 101 126 120 147
183 179 167 164 164 151 146 154 158 164 174 177 169 182 185 172 185 203 197 195 198 174 159 171 174 173 177 180 188 199 210 204 200 208 210 213 208 202 215 237 247 231 219 214 199 183 171 170 163 167 159 157 140 132 117 106 100 92 92 89 76 129 118
169 165 160 152 144 144 146 145 149 148 160 171 178 174 176 178 175 207 226 259 277 82 182 180 165 174 189 189 195 183 192 223 233 220 216 218 216 227 209 214 234 234 227 238 219 187 178 177 179 177 164 153 152 147 144 135 128 111 86 86 99 58 45
156 154 144 138 139 140 138 138 136 135 150 162 170 168 164 169 141 166 168 191 114 116 231 218 198 194 200 197 169 190 202 212 227 225 220 225 216 220 215 224 229 233 238 234 239 204 184 184 182 178 171 172 172 168 157 153 154 132 104 79 35 31 33
145 139 139 136 137 135 128 133 144 144 147 154 155 158 155 156 158 178 199 212 199 169 249 271 269 273 283 276 211 200 217 231 237 248 241 237 228 222 224 223 226 208 213 222 219 217 201 191 174 178 179 178 175 181 164 157 146 126 122 76 93 73 344
150 145 146 145 149 147 161 163 152 151 157 161 166 168 168 164 190 207 216 207 188 208 219 267 65 11 349 322 288 272 234 228 255 270 274 273 262 247 236 233 226 203 202 211 210 215 215 201 198 202 174 180 179 182 173 157 151 123 59 25 33 358 337
162 167 154 150 164 170 168 159 164 160 160 176 199 181 157 156 175 202 214 200 176 151 139 67 56 59 29 308 293 313 319 319 307 291 276 270 280 278 254 241 242 191 193 197 205 208 195 193 212 130 113 96 82 160 171 149 120 100 60 45 89 347 326
183 132 56 56 191 171 157 155 164 168 169 185 185 160 161 158 148 147 160 128 88 76 100 69 89 100 94 73 36 341 338 327 296 290 292 294 295 293 291 288 274 262 224 203 171 141 141 145 115 101 93 86 75 51 34 40 125 140 124 135 149 103 318
160 154 182 168 178 176 167 124 178 170 168 157 152 147 133 136 122 94 73 81 79 68 64 50 52 75 78 68 65 112 115 103 21 1 333 327 320 313 305 293 283 207 123 123 142 144 129 115 110 111 104 92 72 68 66 54 37 35 127 115 110 175 272
147 127 133 146 154 154 161 162 135 99 101 121 110 99 94 91 96 97 96 96 92 82 76 45 53 89 101 109 159 175 82 69 46 50 36 19 354 338 329 315 311 126 122 146 147 148 145 138 135 126 117 104 98 86 78 74 72 56 47 74 92 260 133
98 89 85 89 100 102 100 96 93 81 85 87 93 95 106 114 111 116 116 123 127 119 97 53 62 105 119 125 146 187 90 92 82 67 51 37 21 12 2 1 5 69 106 130 136 145 142 136 124 114 107 99 96 92 85 83 76 83 83 77 89 83 94
71 64 78 95 108 112 104 104 112 112 108 108 105 111 106 106 113 115 129 133 106 86 70 31 38 97 126 139 167 116 101 91 84 74 62 47 41 37 34 44 82 89 96 105 91 105 116 123 119 117 113 113 108 95 78 50 33 33 35 50 76 72 72
70 75 102 117 107 102 115 116 113 145 130 123 120 110 101 90 71 75 81 54 53 83 81 40 41 87 117 146 148 103 110 103 93 85 67 62 64 56 44 40 70 95 97 95 79 97 110 128 125 125 124 121 115 114 111 108 82 69 54 49 45 41 15
95 98 106 110 107 104 104 111 102 358 104 108 98 88 104 101 77 51 45 50 29 39 66 65 75 106 117 91 108 122 119 110 101 92 85 65 69 69 55 32 34 97 94 101 101 108 124 138 132 134 133 133 134 127 122 135 155 144 161 173 178 195 194
138 128 127 131 123 123 118 115 116 121 100 99 100 107 84 96 86 70 54 51 38 25 54 62 60 92 109 123 135 127 126 121 110 101 104 92 78 87 80 57 42 49 77 94 82 65 27 20 108 114 130 136 135 124 103 110 109 119 136 194 197 200 200
159 164 169 172 164 163 159 162 141 124 109 116 123 110 101 87 86 70 53 49 55 27 36 59 51 86 111 110 32 121 136 132 120 116 110 116 113 99 98 95 77 71 86 83 81 76 64 57 91 94 110 114 111 106 116 100 49 2 21 302 303 280 281
190 181 172 167 155 146 158 143 128 126 127 108 107 108 94 95 88 86 63 46 59 60 26 35 72 86 127 123 129 163 137 101 119 128 126 128 131 130 122 99 99 65 79 85 85 81 75 58 47 71 58 70 57 57 348 114 120 224 301 304 293 293 298
249 199 159 144 149 156 157 152 150 148 141 144 146 135 135 129 125 111 111 82 56 28 58 4 106 120 147 145 155 168 160 139 141 130 135 137 141 140 126 122 111 86 82 81 80 81 79 74 67 80 71 79 84 76 49 54 350 329 319 311 315 312 312
208 205 178 176 163 161 163 165 158 154 151 156 156 155 162 161 156 151 156 168 171 177 157 115 12 137 154 170 164 173 150 152 173 171 160 165 155 128 118 114 103 99 95 92 90 90 92 93 85 86 96 93 91 126 253 14 349 323 327 321 317 313 314
209 211 193 178 179 162 168 172 165 173 173 171 171 172 171 177 176 171 174 170 173 173 167 155 79 47 151 166 166 152 141 133 161 161 133 131 123 122 131 122 114 113 104 99 92 81 71 70 88 92 88 90 100 46 7 346 340 342 320 317 317 319 321